[[{"header":{"parameterUnit":"m.s-1","parameterCategory":2,"la1":30.2991,"la2":30.254,"lo1":-89.0895,"lo2":-89.0444,"dy":0.0017,"dx":0.0017,"nx":28,"ny":28,"refTime":"2025-12-15T03:00:00:Z","depth":"0","parameterNumber":2,"parameterNumberName":"U-component_of_CURRENTS"},"data":[0,0,0,0,0,0,0,0,0,0,0,0,0,0,0,0,0,0,0,0,0,0,0,0,0,0,0,0,0,0,0,0,0,0,0,0,0,0,0,0,0,0,0,0,0,0,0,0,0,0,0,0,0,0,0,0,0,0,-0.2175,-0.2175,0,-0.2165,-0.2164,-0.2164,-0.2137,-0.2136,-0.2136,-0.2136,-0.2034,-0.2031,-0.2029,0,0,0,0,0,0,0,0,0,0,0,0,0,-0.2112,-0.2113,-0.2175,-0.2175,-0.2175,-0.2165,-0.2164,-0.2164,-0.2137,-0.2136,-0.2136,-0.2136,-0.2035,-0.2032,-0.2029,0,0,0,0,0,0,0,0,0,0,0,0,0,-0.212,-0.2114,-0.2175,-0.2164,-0.2163,-0.2165,-0.2164,-0.2164,-0.2137,-0.2136,-0.2136,-0.2136,-0.2036,-0.2032,-0.2028,-0.201,0,0,-0.2016,-0.2015,0,0,0,0,0,0,0,0,-0.212,-0.2122,-0.2165,-0.2164,-0.2164,-0.2156,-0.2105,-0.2109,-0.2137,-0.2142,-0.2136,-0.2136,-0.2069,-0.2062,-0.2056,-0.2005,-0.2001,-0.2016,-0.2014,-0.2012,-0.2011,0,0,0,0,0,0,0,-0.212,-0.2122,-0.2166,-0.2165,-0.2165,-0.214,-0.2141,-0.2105,-0.2102,-0.2142,-0.2141,-0.2147,-0.2067,-0.206,-0.2053,-0.1999,-0.2016,-0.2013,-0.201,-0.2009,-0.1955,-0.1956,0,0,0,0,0,0,-0.2133,-0.2122,-0.2167,-0.2166,-0.2146,-0.2142,-0.2142,-0.2155,-0.2104,-0.2099,-0.2147,-0.2146,-0.2067,-0.2058,-0.205,-0.2054,-0.2012,-0.2009,-0.2006,-0.1954,-0.1955,-0.1956,0,0,0,0,0,0,-0.2132,-0.2138,-0.2167,-0.2147,-0.2149,-0.2144,-0.2157,-0.2155,-0.2151,-0.211,-0.2102,-0.2147,-0.2066,-0.2055,-0.2032,-0.2048,-0.2007,-0.2003,-0.1953,-0.1954,-0.1955,-0.2043,0,0,0,0,0,0,-0.213,-0.2137,-0.2143,-0.2148,-0.2151,-0.2182,-0.2158,-0.2155,-0.2157,-0.2155,-0.2107,-0.2097,-0.2065,-0.2038,-0.2028,-0.2042,-0.2,-0.1952,-0.1953,-0.1955,-0.2039,-0.2047,-0.2054,0,0,0,0,0,-0.2128,-0.2144,-0.2144,-0.2149,-0.2163,-0.2184,-0.2183,-0.2174,-0.2158,-0.2166,-0.2134,-0.2099,-0.2041,-0.2036,-0.2024,-0.2037,-0.1951,-0.1953,-0.1955,-0.2035,-0.2045,-0.2053,0,0,0,0,0,0,-0.2114,-0.2144,-0.2143,-0.2165,-0.218,-0.2181,-0.2185,-0.2179,-0.216,-0.215,-0.2106,-0.2095,-0.2081,-0.2047,-0.2042,-0.2027,-0.1992,-0.1991,-0.2057,-0.2066,-0.2073,-0.2087,-0.1997,0,0,0,0,0,-0.2117,-0.2136,-0.216,-0.2174,-0.2186,-0.2184,-0.2188,-0.2186,-0.2176,-0.2168,-0.2138,-0.2103,-0.208,-0.2064,-0.2035,-0.2023,-0.2013,-0.2025,-0.2032,-0.2039,-0.2043,-0.2048,-0.2057,-0.1962,-0.1962,-0.1962,0,0,-0.2111,-0.2131,-0.2139,-0.2172,-0.2177,-0.2205,-0.2185,-0.2199,-0.2215,-0.2157,-0.2157,-0.2125,-0.2082,-0.2076,-0.2066,-0.2048,-0.2066,-0.2041,-0.2047,-0.2047,-0.2051,-0.206,-0.2069,-0.1963,-0.1963,-0.1963,0,0,-0.2119,-0.2134,-0.2156,-0.218,-0.2206,-0.2213,-0.2223,-0.2233,-0.2232,-0.223,-0.2197,-0.2183,-0.2137,-0.2125,-0.2108,-0.2138,-0.2105,-0.2123,-0.217,-0.2176,-0.2184,-0.219,-0.2215,-0.2223,-0.2126,-0.2127,-0.2127,0,-0.2108,-0.2149,-0.2164,-0.2199,-0.2223,-0.2223,-0.2258,-0.2261,-0.226,-0.2265,-0.2239,-0.2205,-0.2166,-0.2172,-0.2179,-0.2156,-0.2156,-0.2141,-0.2187,-0.2193,-0.2199,-0.2222,-0.223,-0.2131,-0.2131,-0.213,-0.213,0,-0.2139,-0.2176,-0.2193,-0.2242,-0.2267,-0.2297,-0.232,-0.2333,-0.2325,-0.2326,-0.2329,-0.2288,-0.2267,-0.2257,-0.222,-0.2244,-0.2232,-0.2198,-0.2168,-0.2214,-0.2235,-0.2242,-0.2137,-0.2136,-0.2135,-0.2133,0,0,-0.2103,-0.2198,-0.2202,-0.2247,-0.2297,-0.2326,-0.2358,-0.2396,-0.2421,-0.2408,-0.2437,-0.2398,-0.2374,-0.2353,-0.2317,-0.2319,-0.2359,-0.2274,-0.2273,-0.2307,-0.2388,-0.2334,-0.2336,-0.2331,-0.2332,-0.2333,-0.2396,0,-0.2121,-0.2205,-0.2243,-0.2317,-0.2367,-0.2395,-0.2432,-0.2462,-0.247,-0.2496,-0.247,-0.2469,-0.2412,-0.24,-0.2397,-0.2357,-0.2377,-0.2346,-0.2331,-0.2331,-0.2283,-0.2341,-0.2168,-0.2205,-0.2403,-0.2404,-0.2405,0,-0.2133,-0.2199,-0.2277,-0.2383,-0.2405,-0.2442,-0.2511,-0.2544,-0.2578,-0.2582,-0.2583,-0.2557,-0.2551,-0.2495,-0.2478,-0.2458,-0.2433,-0.2412,-0.2413,-0.2333,-0.2288,-0.2185,-0.221,-0.2159,-0.2415,-0.2414,-0.2413,0,-0.2104,-0.2219,-0.2286,-0.2321,-0.2431,-0.2466,-0.2513,-0.2563,-0.2594,-0.2631,-0.2644,-0.2642,-0.2626,-0.2599,-0.2539,-0.2507,-0.2534,-0.2483,-0.2429,-0.2426,-0.226,-0.224,-0.2234,-0.2498,-0.2497,-0.2497,-0.2497,0,-0.2108,-0.2161,-0.2283,-0.232,-0.2409,-0.2474,-0.2544,-0.2589,-0.2641,-0.2679,-0.2676,-0.2697,-0.2645,-0.2642,-0.2591,-0.2536,-0.2576,-0.2454,-0.2439,-0.2288,-0.227,-0.22,-0.221,-0.25,-0.2499,-0.2499,-0.2498,0,-0.2054,-0.2133,-0.2227,-0.2356,-0.2396,-0.2455,-0.2561,-0.2602,-0.2653,-0.2701,-0.2708,-0.2736,-0.2728,-0.2699,-0.2669,-0.259,-0.2494,-0.2535,-0.2372,-0.2335,-0.2196,-0.2217,-0.2222,-0.2167,-0.247,-0.2469,-0.2468,0,-0.2035,-0.2072,-0.2231,-0.229,-0.2347,-0.2442,-0.2495,-0.2587,-0.2628,-0.2719,-0.2735,-0.2762,-0.274,-0.27,-0.2587,-0.2516,-0.2495,-0.2333,-0.2229,-0.2183,-0.2196,-0.2214,-0.2169,-0.2059,-0.2055,-0.2051,-0.2049,0,-0.199,-0.204,-0.2121,-0.2238,-0.2318,-0.2405,-0.2489,-0.2522,-0.2617,-0.264,-0.2675,-0.2667,-0.2647,-0.2474,-0.2401,-0.2338,-0.2235,-0.2262,-0.2238,-0.1905,-0.1897,-0.1836,-0.2055,-0.2019,-0.2022,-0.2024,-0.2026,-0.2027,-0.1941,-0.1982,-0.2074,-0.2171,-0.2262,-0.231,-0.2289,-0.2373,-0.239,-0.2348,-0.2497,-0.2388,-0.2314,-0.2158,-0.2124,-0.1949,-0.2048,-0.1826,-0.1871,-0.1907,-0.1801,-0.1977,-0.1904,-0.1907,-0.1908,-0.191,-0.1912,0,-0.1863,-0.1904,-0.1993,-0.2082,-0.2101,-0.2184,-0.2223,-0.2143,-0.2072,-0.2105,-0.2059,-0.1942,-0.1786,-0.1761,-0.1616,-0.1534,-0.1499,-0.1525,-0.1482,-0.1464,-0.1611,-0.1535,-0.1346,-0.1346,-0.1346,-0.1346,-0.1346,-0.1346,-0.1827,-0.1847,-0.1885,-0.1879,-0.1912,-0.1805,-0.1763,-0.1689,-0.1649,-0.1516,-0.1437,-0.1451,-0.1481,-0.1499,-0.1372,-0.1312,-0.1295,-0.1258,-0.1356,-0.1416,-0.1446,-0.1475,-0.1403,-0.119,-0.119,-0.1088,-0.1088,-0.1087]},{"header":{"parameterUnit":"m.s-1","parameterCategory":2,"la1":30.2991,"la2":30.254,"lo1":-89.0895,"lo2":-89.0444,"dy":0.0017,"dx":0.0017,"nx":28,"ny":28,"refTime":"2025-12-15T03:00:00:Z","depth":"0","parameterNumber":3,"parameterNumberName":"V-component_of_CURRENTS"},"data":[0,0,0,0,0,0,0,0,0,0,0,0,0,0,0,0,0,0,0,0,0,0,0,0,0,0,0,0,0,0,0,0,0,0,0,0,0,0,0,0,0,0,0,0,0,0,0,0,0,0,0,0,0,0,0,0,0,0,-0.0034,-0.0034,0,0.0025,0.0026,0.0027,0.0066,0.0066,0.0066,0.0066,0.0148,0.015,0.0152,0,0,0,0,0,0,0,0,0,0,0,0,0,-0.0067,-0.0067,-0.0034,-0.0033,-0.0033,0.0025,0.0026,0.0027,0.0066,0.0066,0.0066,0.0066,0.0147,0.0149,0.0152,0,0,0,0,0,0,0,0,0,0,0,0,0,-0.0034,-0.0067,-0.0034,-0.0007,-0.0004,0.0025,0.0026,0.0027,0.0066,0.0066,0.0066,0.0066,0.0146,0.0149,0.0152,0.0165,0,0,0.0161,0.0162,0,0,0,0,0,0,0,0,-0.0036,-0.0033,-0.0012,-0.0009,-0.0005,0.0038,0.0044,0.0074,0.0066,0.004,0.0066,0.0067,0.0112,0.0118,0.0129,0.0169,0.0172,0.0161,0.0163,0.0165,0.0165,0,0,0,0,0,0,0,-0.0039,-0.0035,-0.001,-0.0011,-0.0007,0.0018,0.0023,0.005,0.0075,0.0042,0.0045,0.005,0.0114,0.0126,0.0132,0.0173,0.0161,0.0164,0.0166,0.0167,0.0226,0.0226,0,0,0,0,0,0,-0.005,-0.0038,-0.0012,-0.0008,-0.0021,0.0018,0.0024,0.0024,0.0074,0.0082,0.005,0.0052,0.0121,0.0128,0.0135,0.0144,0.0165,0.0167,0.0169,0.0226,0.0226,0.0226,0,0,0,0,0,0,-0.0051,-0.0049,-0.0014,-0.0022,-0.0016,0.0018,0.0019,0.0025,0.0037,0.008,0.0088,0.0055,0.0122,0.013,0.0154,0.0148,0.0169,0.0171,0.0226,0.0226,0.0226,0.0168,0,0,0,0,0,0,-0.0052,-0.0049,-0.0055,-0.0023,-0.0016,-0.0003,0.0019,0.0026,0.0039,0.0043,0.0087,0.0095,0.0122,0.0149,0.0156,0.0152,0.0174,0.0227,0.0226,0.0226,0.017,0.0166,0.0162,0,0,0,0,0,-0.0054,-0.0064,-0.0055,-0.0052,-0.0024,-0.0004,0.0002,0.0028,0.0039,0.0041,0.0069,0.0093,0.0152,0.0151,0.016,0.0156,0.0227,0.0226,0.0226,0.0172,0.0167,0.0162,0,0,0,0,0,0,-0.0082,-0.006,-0.005,-0.0053,-0.0033,0.0002,0.0005,0.0024,0.0048,0.0051,0.0091,0.0101,0.0119,0.0145,0.0144,0.0172,0.0193,0.0194,0.0149,0.0144,0.014,0.0133,0.0176,0,0,0,0,0,-0.0092,-0.0093,-0.0065,-0.0069,-0.006,-0.0029,-0.0018,0.0,0.0026,0.0037,0.0068,0.0099,0.0125,0.0139,0.0167,0.0182,0.019,0.0186,0.0182,0.0178,0.0179,0.0183,0.0179,0.0224,0.0224,0.0224,0,0,-0.0105,-0.0092,-0.0094,-0.0075,-0.0057,-0.0052,-0.0021,-0.0009,-0.0003,0.0042,0.0058,0.0087,0.0126,0.0142,0.0153,0.0163,0.0165,0.0178,0.0174,0.0177,0.0182,0.0177,0.0173,0.0224,0.0224,0.0224,0,0,-0.0132,-0.012,-0.013,-0.0115,-0.0093,-0.0072,-0.0071,-0.0038,-0.0022,-0.0003,0.0029,0.0053,0.0093,0.0118,0.0136,0.0127,0.0143,0.0135,0.0109,0.0112,0.0108,0.0105,0.0085,0.008,0.0132,0.0132,0.0132,0,-0.0149,-0.0159,-0.0129,-0.0132,-0.0129,-0.0085,-0.0095,-0.0068,-0.0032,-0.0025,-0.0006,0.0046,0.0083,0.0099,0.01,0.0118,0.0112,0.0122,0.0105,0.0102,0.01,0.0081,0.0076,0.0129,0.013,0.013,0.013,0,-0.0181,-0.0188,-0.0192,-0.0184,-0.0172,-0.0175,-0.0137,-0.0122,-0.0097,-0.0071,-0.0048,-0.0,0.0029,0.0045,0.0074,0.0076,0.0073,0.0097,0.0113,0.0091,0.0073,0.0069,0.0125,0.0126,0.0127,0.0128,0,0,-0.0224,-0.0219,-0.0221,-0.0236,-0.0204,-0.0205,-0.0187,-0.0169,-0.0171,-0.0122,-0.0127,-0.0065,-0.0038,-0.0015,0.0021,0.0034,0.0014,0.0056,0.0058,0.0028,-0.0004,0.0105,0.0112,0.0029,0.0029,0.0029,-0.0019,0,-0.0263,-0.0297,-0.0272,-0.0302,-0.0322,-0.0276,-0.027,-0.0243,-0.0211,-0.0201,-0.0141,-0.0126,-0.0061,-0.0055,-0.003,0.0003,0.0006,0.0023,0.003,0.003,0.0123,0.0113,0.0168,0.0141,-0.0023,-0.0023,-0.0023,0,-0.0303,-0.0326,-0.0367,-0.0384,-0.0387,-0.0387,-0.0383,-0.0368,-0.0324,-0.0301,-0.0261,-0.0216,-0.0178,-0.0126,-0.0079,-0.0075,-0.0043,-0.0015,-0.0016,0.0108,0.0134,0.0143,0.0141,0.0259,-0.0028,-0.0028,-0.0028,0,-0.037,-0.0394,-0.0437,-0.0441,-0.0443,-0.0447,-0.0439,-0.0402,-0.0406,-0.0363,-0.0371,-0.0305,-0.0292,-0.0229,-0.0133,-0.0124,-0.009,-0.0074,0.0047,0.0052,0.0116,0.0131,0.0229,-0.0053,-0.0053,-0.0052,-0.0052,0,-0.043,-0.0464,-0.0474,-0.05,-0.0555,-0.0517,-0.0554,-0.0528,-0.0505,-0.0529,-0.043,-0.0436,-0.0317,-0.0266,-0.0179,-0.0062,-0.0125,0.0043,0.0058,0.0098,0.0111,0.0232,0.0277,-0.0054,-0.0054,-0.0054,-0.0053,0,-0.0497,-0.0498,-0.0561,-0.0582,-0.059,-0.0628,-0.0638,-0.0666,-0.062,-0.0649,-0.0642,-0.0558,-0.0459,-0.0327,-0.0231,-0.0125,0.0063,0.0028,0.0068,0.0093,0.0348,0.0387,0.05,0.0568,0.014,0.0143,0.0145,0,-0.0533,-0.0571,-0.0636,-0.0685,-0.0696,-0.0737,-0.077,-0.0732,-0.0754,-0.0725,-0.0753,-0.0652,-0.055,-0.0336,-0.0122,0.0067,0.0149,0.0204,0.0262,0.0383,0.0434,0.0458,0.0507,0.029,0.0294,0.0296,0.0298,0,-0.0615,-0.0637,-0.0698,-0.08,-0.0853,-0.0908,-0.0938,-0.0965,-0.0927,-0.0899,-0.0848,-0.0751,-0.0502,-0.0218,0.0064,0.0175,0.0327,0.0267,0.0372,0.0562,0.0609,0.0674,0.0279,0.0322,0.0319,0.0318,0.0316,0.0315,-0.0677,-0.0751,-0.0834,-0.0934,-0.0998,-0.1057,-0.1071,-0.1072,-0.1058,-0.0947,-0.0898,-0.0657,-0.0297,0.0153,0.0271,0.0582,0.0535,0.0672,0.0699,0.0704,0.0825,0.0496,0.0588,0.0588,0.0587,0.0586,0.0586,0,-0.0762,-0.0848,-0.0959,-0.1066,-0.1149,-0.1142,-0.1171,-0.113,-0.1069,-0.0894,-0.0746,-0.0288,0.0094,0.0419,0.0834,0.0993,0.0997,0.1058,0.1079,0.1101,0.0787,0.0855,0.1036,0.1036,0.1035,0.1035,0.1035,0.1035,-0.0813,-0.0943,-0.1013,-0.1178,-0.1232,-0.1247,-0.1238,-0.114,-0.0982,-0.062,-0.0292,-0.0055,0.036,0.0955,0.1309,0.1333,0.1436,0.1443,0.1484,0.1253,0.1217,0.1184,0.126,0.1522,0.1523,0.179,0.1793,0.1795]}],[{"header":{"parameterUnit":"m.s-1","parameterCategory":2,"la1":30.2991,"la2":30.254,"lo1":-89.0895,"lo2":-89.0444,"dy":0.0017,"dx":0.0017,"nx":28,"ny":28,"refTime":"2025-12-15T03:00:00:Z","depth":"2","parameterNumber":2,"parameterNumberName":"U-component_of_CURRENTS"},"data":[0,0,0,0,0,0,0,0,0,0,0,0,0,0,0,0,0,0,0,0,0,0,0,0,0,0,0,0,0,0,0,0,0,0,0,0,0,0,0,0,0,0,0,0,0,0,0,0,0,0,0,0,0,0,0,0,0,0,-0.1544,-0.1544,0,-0.1544,-0.1544,-0.1544,-0.1551,-0.1552,-0.1552,-0.1552,-0.1558,-0.1558,-0.1557,0,0,0,0,0,0,0,0,0,0,0,0,0,-0.155,-0.1549,-0.1544,-0.1544,-0.1544,-0.1544,-0.1544,-0.1544,-0.1551,-0.1552,-0.1552,-0.1552,-0.1558,-0.1558,-0.1557,0,0,0,0,0,0,0,0,0,0,0,0,0,-0.1547,-0.1549,-0.1544,-0.1549,-0.1549,-0.1544,-0.1544,-0.1544,-0.1551,-0.1552,-0.1552,-0.1553,-0.1558,-0.1558,-0.1557,-0.1548,0,0,-0.1557,-0.1557,0,0,0,0,0,0,0,0,-0.1548,-0.1547,-0.1548,-0.1548,-0.1549,-0.1549,-0.1548,-0.1546,-0.1551,-0.155,-0.1552,-0.1553,-0.1556,-0.1556,-0.1553,-0.1548,-0.1549,-0.1557,-0.1557,-0.1557,-0.1557,0,0,0,0,0,0,0,-0.1548,-0.1547,-0.1543,-0.1548,-0.1549,-0.155,-0.155,-0.1548,-0.155,-0.155,-0.1551,-0.1552,-0.1556,-0.1553,-0.1554,-0.1549,-0.1557,-0.1557,-0.1557,-0.1557,-0.1557,-0.1558,0,0,0,0,0,0,-0.1549,-0.1547,-0.1543,-0.1543,-0.155,-0.155,-0.155,-0.1548,-0.155,-0.1551,-0.1551,-0.1552,-0.1554,-0.1554,-0.1554,-0.157,-0.1557,-0.1557,-0.1556,-0.1557,-0.1557,-0.1558,0,0,0,0,0,0,-0.1549,-0.1548,-0.1543,-0.1546,-0.1546,-0.155,-0.1547,-0.1548,-0.1551,-0.1551,-0.1552,-0.1555,-0.1554,-0.1554,-0.1557,-0.157,-0.1556,-0.1556,-0.1557,-0.1557,-0.1557,-0.1586,0,0,0,0,0,0,-0.1549,-0.1548,-0.1551,-0.1546,-0.1546,-0.1548,-0.1547,-0.1547,-0.1552,-0.1553,-0.1554,-0.1555,-0.1554,-0.1557,-0.1557,-0.1569,-0.1556,-0.1557,-0.1557,-0.1557,-0.1585,-0.1587,-0.1589,0,0,0,0,0,-0.1549,-0.155,-0.1551,-0.1551,-0.1548,-0.1549,-0.1549,-0.1552,-0.1551,-0.1556,-0.1555,-0.1555,-0.1558,-0.1557,-0.1556,-0.1569,-0.1557,-0.1557,-0.1557,-0.1584,-0.1587,-0.1589,0,0,0,0,0,0,-0.1563,-0.1551,-0.1551,-0.1552,-0.1554,-0.155,-0.1554,-0.1554,-0.1556,-0.1557,-0.1555,-0.1556,-0.1563,-0.1558,-0.1557,-0.1569,-0.1558,-0.1558,-0.1579,-0.1581,-0.1583,-0.1597,-0.1556,0,0,0,0,0,-0.1564,-0.1557,-0.1554,-0.1557,-0.1556,-0.1555,-0.1556,-0.1558,-0.1558,-0.1559,-0.156,-0.1559,-0.1562,-0.1566,-0.1564,-0.157,-0.1591,-0.1577,-0.1579,-0.1581,-0.1591,-0.162,-0.1626,-0.1558,-0.1558,-0.1558,0,0,-0.1573,-0.1564,-0.1563,-0.1558,-0.1558,-0.1565,-0.1557,-0.156,-0.1571,-0.1559,-0.1571,-0.1565,-0.1563,-0.1572,-0.1575,-0.1572,-0.1616,-0.1582,-0.1583,-0.1592,-0.1621,-0.1628,-0.1634,-0.1559,-0.1559,-0.1559,0,0,-0.1579,-0.1576,-0.157,-0.1573,-0.1571,-0.1573,-0.1575,-0.1573,-0.1579,-0.1585,-0.1581,-0.1583,-0.1584,-0.1589,-0.1591,-0.1602,-0.1623,-0.16,-0.1627,-0.1654,-0.1661,-0.1666,-0.1726,-0.1737,-0.1604,-0.1604,-0.1604,0,-0.1592,-0.1586,-0.1572,-0.1572,-0.1585,-0.1578,-0.1592,-0.1592,-0.1595,-0.161,-0.1594,-0.161,-0.1595,-0.1623,-0.1618,-0.1609,-0.1639,-0.1619,-0.1659,-0.1665,-0.167,-0.173,-0.1742,-0.1606,-0.1606,-0.1605,-0.1605,0,-0.159,-0.1597,-0.1596,-0.1595,-0.1606,-0.1616,-0.1621,-0.1632,-0.1635,-0.1642,-0.1666,-0.1648,-0.1661,-0.1653,-0.1634,-0.1668,-0.1683,-0.1657,-0.1657,-0.1679,-0.1741,-0.1752,-0.1608,-0.1607,-0.1607,-0.1606,0,0,-0.1593,-0.1595,-0.1598,-0.161,-0.1624,-0.1631,-0.1658,-0.1685,-0.1716,-0.1709,-0.176,-0.1731,-0.1724,-0.1724,-0.1707,-0.1722,-0.1774,-0.1703,-0.1704,-0.1772,-0.1869,-0.1739,-0.1739,-0.1757,-0.1759,-0.176,-0.1906,0,-0.1602,-0.161,-0.1615,-0.1644,-0.1655,-0.1676,-0.1702,-0.1727,-0.1753,-0.1798,-0.1794,-0.1821,-0.1752,-0.1764,-0.1763,-0.1773,-0.1802,-0.1739,-0.183,-0.1834,-0.1721,-0.1746,-0.1589,-0.1692,-0.1918,-0.192,-0.1921,0,-0.1592,-0.1607,-0.1632,-0.1673,-0.1681,-0.1704,-0.1767,-0.1793,-0.1853,-0.1874,-0.1904,-0.1907,-0.1928,-0.1867,-0.19,-0.1865,-0.1867,-0.1873,-0.1879,-0.1753,-0.1722,-0.17,-0.1705,-0.194,-0.1939,-0.1937,-0.1936,0,-0.1581,-0.1618,-0.1642,-0.1655,-0.1697,-0.1728,-0.1763,-0.182,-0.1864,-0.194,-0.1985,-0.2005,-0.2034,-0.2027,-0.1992,-0.1964,-0.2046,-0.2013,-0.1916,-0.191,-0.1789,-0.1767,-0.2054,-0.2054,-0.2054,-0.2053,-0.2053,0,-0.1571,-0.1591,-0.1641,-0.1649,-0.171,-0.1734,-0.1808,-0.1849,-0.1928,-0.1982,-0.2018,-0.2058,-0.2071,-0.2101,-0.2061,-0.2012,-0.2096,-0.1932,-0.1929,-0.1794,-0.1771,-0.1985,-0.1975,-0.2059,-0.2058,-0.2057,-0.2056,0,-0.1539,-0.1561,-0.1606,-0.167,-0.1699,-0.1746,-0.1845,-0.187,-0.1959,-0.2044,-0.2072,-0.2138,-0.2142,-0.215,-0.2171,-0.2095,-0.2071,-0.2039,-0.1888,-0.1859,-0.1918,-0.1908,-0.1969,-0.1965,-0.1962,-0.196,-0.1958,0,-0.1514,-0.1528,-0.1628,-0.165,-0.1682,-0.176,-0.1781,-0.1878,-0.1903,-0.2059,-0.2068,-0.2151,-0.2121,-0.2118,-0.2028,-0.1976,-0.2023,-0.1807,-0.1687,-0.1913,-0.1906,-0.19,-0.1894,-0.158,-0.1575,-0.1571,-0.1567,0,-0.1483,-0.1525,-0.1565,-0.16,-0.1634,-0.1707,-0.1753,-0.18,-0.1891,-0.1958,-0.2008,-0.2024,-0.2017,-0.1859,-0.1799,-0.1738,-0.1789,-0.1715,-0.2022,-0.1584,-0.1545,-0.1537,-0.1545,-0.153,-0.1534,-0.1537,-0.1539,-0.154,-0.1462,-0.1501,-0.1513,-0.1558,-0.1577,-0.16,-0.1615,-0.1649,-0.1698,-0.1739,-0.1827,-0.1769,-0.1768,-0.1539,-0.1472,-0.1429,-0.1538,-0.1458,-0.1473,-0.1491,-0.1378,-0.133,-0.1259,-0.1261,-0.1263,-0.1265,-0.1266,0,-0.1409,-0.1443,-0.1454,-0.148,-0.1422,-0.1479,-0.1524,-0.1499,-0.1494,-0.1512,-0.1504,-0.1338,-0.1222,-0.1233,-0.1099,-0.1068,-0.1084,-0.1024,-0.1044,-0.108,-0.1113,-0.0981,-0.0757,-0.0756,-0.0755,-0.0753,0,0,-0.1376,-0.1361,-0.1382,-0.1295,-0.1291,-0.1211,-0.122,-0.1206,-0.1189,-0.1131,-0.1071,-0.1096,-0.1147,-0.0924,-0.0893,-0.0801,-0.0931,-0.0761,-0.1167,-0.1223,-0.1253,-0.1357,-0.1192,0,0,0,0,0]},{"header":{"parameterUnit":"m.s-1","parameterCategory":2,"la1":30.2991,"la2":30.254,"lo1":-89.0895,"lo2":-89.0444,"dy":0.0017,"dx":0.0017,"nx":28,"ny":28,"refTime":"2025-12-15T03:00:00:Z","depth":"2","parameterNumber":3,"parameterNumberName":"V-component_of_CURRENTS"},"data":[0,0,0,0,0,0,0,0,0,0,0,0,0,0,0,0,0,0,0,0,0,0,0,0,0,0,0,0,0,0,0,0,0,0,0,0,0,0,0,0,0,0,0,0,0,0,0,0,0,0,0,0,0,0,0,0,0,0,-0.0299,-0.0298,0,-0.0241,-0.024,-0.0239,-0.0231,-0.0232,-0.0232,-0.0233,-0.021,-0.0209,-0.0208,0,0,0,0,0,0,0,0,0,0,0,0,0,-0.0311,-0.0311,-0.0299,-0.0298,-0.0297,-0.0241,-0.024,-0.0239,-0.0231,-0.0232,-0.0232,-0.0233,-0.0211,-0.0209,-0.0208,0,0,0,0,0,0,0,0,0,0,0,0,0,-0.0285,-0.0312,-0.0299,-0.0287,-0.0285,-0.0241,-0.024,-0.0239,-0.0231,-0.0232,-0.0233,-0.0233,-0.0211,-0.0209,-0.0208,-0.018,0,0,-0.0202,-0.0202,0,0,0,0,0,0,0,0,-0.0286,-0.0284,-0.0289,-0.0287,-0.0286,-0.0244,-0.0236,-0.0221,-0.0231,-0.0251,-0.0233,-0.0234,-0.0225,-0.0222,-0.0208,-0.0179,-0.0178,-0.0202,-0.0201,-0.0201,-0.02,0,0,0,0,0,0,0,-0.0288,-0.0286,-0.0275,-0.0288,-0.0286,-0.0253,-0.0251,-0.0233,-0.0234,-0.0249,-0.0249,-0.0243,-0.0224,-0.0209,-0.0207,-0.0178,-0.0202,-0.0201,-0.02,-0.0199,-0.0139,-0.0139,0,0,0,0,0,0,-0.03,-0.0288,-0.0277,-0.0274,-0.0288,-0.0253,-0.025,-0.0256,-0.0233,-0.0231,-0.0242,-0.0242,-0.0212,-0.0209,-0.0207,-0.0188,-0.0201,-0.0199,-0.0198,-0.014,-0.0139,-0.0139,0,0,0,0,0,0,-0.0301,-0.03,-0.028,-0.0279,-0.0274,-0.0252,-0.0259,-0.0255,-0.0251,-0.0227,-0.0225,-0.0243,-0.0213,-0.0209,-0.0191,-0.0186,-0.0198,-0.0197,-0.0141,-0.014,-0.0139,-0.014,0,0,0,0,0,0,-0.0302,-0.0301,-0.0309,-0.028,-0.0275,-0.0257,-0.0258,-0.0253,-0.0245,-0.0246,-0.0228,-0.0226,-0.0213,-0.0194,-0.019,-0.0184,-0.0195,-0.0141,-0.014,-0.0139,-0.0141,-0.0139,-0.0138,0,0,0,0,0,-0.0302,-0.0313,-0.0311,-0.0309,-0.0288,-0.0257,-0.025,-0.0236,-0.0245,-0.0237,-0.0226,-0.0227,-0.0184,-0.0192,-0.0187,-0.0181,-0.0142,-0.0141,-0.0139,-0.0141,-0.014,-0.0138,0,0,0,0,0,0,-0.0317,-0.0312,-0.0309,-0.0317,-0.029,-0.0256,-0.0251,-0.0241,-0.0225,-0.0233,-0.0216,-0.0212,-0.0196,-0.0186,-0.0195,-0.016,-0.0165,-0.0162,-0.0168,-0.0166,-0.0165,-0.0165,-0.0194,0,0,0,0,0,-0.0326,-0.0337,-0.0312,-0.0316,-0.0308,-0.0281,-0.0269,-0.0259,-0.0239,-0.0233,-0.022,-0.0205,-0.0183,-0.0175,-0.0157,-0.0135,-0.0123,-0.0129,-0.0128,-0.0127,-0.0123,-0.0084,-0.0079,-0.0135,-0.0135,-0.0135,0,0,-0.033,-0.033,-0.0334,-0.032,-0.0303,-0.0284,-0.0276,-0.0262,-0.0244,-0.0233,-0.0215,-0.0202,-0.0177,-0.0153,-0.0145,-0.0146,-0.0108,-0.0125,-0.0125,-0.0121,-0.0082,-0.0076,-0.0072,-0.0134,-0.0134,-0.0134,0,0,-0.0342,-0.0347,-0.0358,-0.0337,-0.0317,-0.0294,-0.0294,-0.0266,-0.0253,-0.023,-0.0217,-0.0194,-0.0173,-0.0141,-0.0124,-0.0103,-0.0104,-0.011,-0.0101,-0.0063,-0.0058,-0.0053,-0.0048,-0.0043,-0.0107,-0.0107,-0.0107,0,-0.0348,-0.0359,-0.035,-0.0346,-0.0328,-0.0303,-0.0291,-0.0266,-0.0234,-0.0216,-0.023,-0.0175,-0.016,-0.0108,-0.0107,-0.0099,-0.0095,-0.011,-0.0061,-0.0056,-0.0052,-0.0047,-0.0041,-0.0107,-0.0107,-0.0107,-0.0107,0,-0.0363,-0.0364,-0.0364,-0.0354,-0.0331,-0.0317,-0.0279,-0.0261,-0.0251,-0.0221,-0.0182,-0.0154,-0.0122,-0.0112,-0.0107,-0.0062,-0.0077,-0.0067,-0.0067,-0.0046,-0.0042,-0.0036,-0.0107,-0.0107,-0.0107,-0.0107,0,0,-0.0391,-0.038,-0.0379,-0.0375,-0.0335,-0.032,-0.0284,-0.0239,-0.0222,-0.0187,-0.0158,-0.0111,-0.0103,-0.0084,-0.0067,-0.0033,-0.0005,-0.0045,-0.0043,-0.0043,0.0049,0.0087,0.0097,0.0008,0.001,0.0011,0.0032,0,-0.0402,-0.0409,-0.0388,-0.0371,-0.0367,-0.0322,-0.0292,-0.0247,-0.0214,-0.018,-0.0127,-0.0103,-0.0088,-0.0091,-0.0046,-0.0019,0.0013,-0.0013,0.0032,0.0033,0.0063,0.0107,0.0093,0.0115,0.0037,0.0038,0.0039,0,-0.0422,-0.0424,-0.0424,-0.0393,-0.0386,-0.037,-0.0322,-0.0289,-0.0219,-0.0198,-0.0146,-0.0116,-0.0059,-0.006,0.0021,-0.0004,0.002,0.0047,0.0049,0.0092,0.0085,0.0087,0.0129,0.0049,0.0048,0.0048,0.0047,0,-0.0464,-0.0443,-0.045,-0.0438,-0.0401,-0.0392,-0.0368,-0.0304,-0.0284,-0.0218,-0.0212,-0.0121,-0.0112,-0.0039,0.0018,0.0008,0.0101,0.0098,0.0162,0.0163,0.0167,0.0167,0.0163,0.0163,0.0163,0.0163,0.0163,0,-0.0489,-0.049,-0.048,-0.0484,-0.0491,-0.0443,-0.0434,-0.0396,-0.0344,-0.0328,-0.0241,-0.0223,-0.0111,-0.0043,0.002,0.0115,0.0107,0.0176,0.0187,0.0164,0.0164,0.0121,0.0116,0.0164,0.0163,0.0163,0.0163,0,-0.0539,-0.0526,-0.0541,-0.0523,-0.052,-0.0533,-0.0504,-0.0491,-0.044,-0.0422,-0.0412,-0.031,-0.0217,-0.009,0.0022,0.01,0.0197,0.023,0.0185,0.0192,0.0224,0.0219,0.0301,0.0303,0.0304,0.0306,0.0307,0,-0.0566,-0.0584,-0.0596,-0.0615,-0.0615,-0.0619,-0.0617,-0.0559,-0.054,-0.0481,-0.0477,-0.0382,-0.0295,-0.0089,0.007,0.0227,0.0222,0.0297,0.0302,0.0244,0.0246,0.0237,0.023,0.0285,0.0286,0.0287,0.0287,0,-0.0624,-0.0637,-0.0657,-0.0693,-0.071,-0.0718,-0.0709,-0.0712,-0.0645,-0.0614,-0.0556,-0.0482,-0.0275,-0.0078,0.0144,0.0228,0.0282,0.0317,0.0283,0.0264,0.0235,0.0234,0.0226,0.0293,0.0293,0.0292,0.0292,0.0292,-0.0674,-0.0719,-0.0746,-0.0785,-0.0793,-0.0809,-0.0818,-0.0779,-0.0754,-0.067,-0.0606,-0.0447,-0.0275,0.0071,0.0205,0.0344,0.0334,0.0373,0.0368,0.0364,0.037,0.0347,0.0425,0.0425,0.0425,0.0425,0.0425,0,-0.0735,-0.079,-0.0829,-0.0868,-0.0876,-0.0863,-0.0865,-0.0844,-0.081,-0.0669,-0.0565,-0.0344,-0.0115,0.0074,0.0299,0.0418,0.0394,0.0437,0.0381,0.0374,0.0369,0.0373,0.043,0.043,0.0431,0.0431,0,0,-0.0775,-0.0843,-0.0877,-0.0932,-0.0944,-0.0954,-0.0959,-0.09,-0.0791,-0.0634,-0.0467,-0.028,-0.007,0.0091,0.0228,0.0343,0.0327,0.0351,0.0336,0.0246,0.0239,0.0322,0.0322,0,0,0,0,0]}],[{"header":{"parameterUnit":"m.s-1","parameterCategory":2,"la1":30.2991,"la2":30.254,"lo1":-89.0895,"lo2":-89.0444,"dy":0.0017,"dx":0.0017,"nx":28,"ny":28,"refTime":"2025-12-15T03:00:00:Z","depth":"4","parameterNumber":2,"parameterNumberName":"U-component_of_CURRENTS"},"data":[0,0,0,0,0,0,0,0,0,0,0,0,0,0,0,0,0,0,0,0,0,0,0,0,0,0,0,0,0,0,0,0,0,0,0,0,0,0,0,0,0,0,0,0,0,0,0,0,0,0,0,0,0,0,0,0,0,0,-0.0788,-0.0788,0,-0.0833,-0.0833,-0.0834,-0.0854,-0.0854,-0.0854,-0.0854,-0.0893,-0.0894,-0.0895,0,0,0,0,0,0,0,0,0,0,0,0,0,-0.0736,-0.0737,-0.0787,-0.0788,-0.0789,-0.0833,-0.0833,-0.0834,-0.0854,-0.0854,-0.0854,-0.0854,-0.0893,-0.0894,-0.0895,0,0,0,0,0,0,0,0,0,0,0,0,0,-0.0766,-0.0737,-0.0787,-0.0806,-0.0808,-0.0833,-0.0833,-0.0834,-0.0854,-0.0854,-0.0854,-0.0855,-0.0893,-0.0894,-0.0895,-0.0901,0,0,-0.09,-0.09,0,0,0,0,0,0,0,0,-0.0764,-0.0768,-0.0802,-0.0804,-0.0807,-0.0839,-0.083,-0.0857,-0.0854,-0.0835,-0.0854,-0.0855,-0.0876,-0.0878,-0.0884,-0.0903,-0.0905,-0.09,-0.0901,-0.0901,-0.0902,0,0,0,0,0,0,0,-0.0762,-0.0766,-0.0804,-0.0803,-0.0806,-0.0818,-0.0822,-0.0835,-0.0852,-0.0836,-0.0838,-0.0846,-0.0877,-0.0883,-0.0886,-0.0905,-0.09,-0.0901,-0.0902,-0.0903,-0.0974,-0.0975,0,0,0,0,0,0,-0.0759,-0.0764,-0.0802,-0.0805,-0.0787,-0.0818,-0.0823,-0.0828,-0.0853,-0.0857,-0.0846,-0.0847,-0.0881,-0.0884,-0.0887,-0.093,-0.0901,-0.0903,-0.0903,-0.0973,-0.0974,-0.0975,0,0,0,0,0,0,-0.0757,-0.0762,-0.0801,-0.0787,-0.0793,-0.0819,-0.0824,-0.0828,-0.0848,-0.086,-0.0864,-0.0863,-0.0881,-0.0885,-0.0917,-0.0931,-0.0903,-0.0905,-0.0972,-0.0973,-0.0975,-0.0995,0,0,0,0,0,0,-0.0756,-0.0761,-0.0766,-0.0787,-0.0794,-0.0826,-0.0824,-0.0829,-0.0853,-0.0855,-0.0876,-0.0879,-0.0881,-0.0915,-0.0919,-0.0932,-0.0906,-0.097,-0.0973,-0.0974,-0.0993,-0.0997,-0.1,0,0,0,0,0,-0.0754,-0.076,-0.0766,-0.0771,-0.0799,-0.0827,-0.0832,-0.0849,-0.0854,-0.0867,-0.0885,-0.0879,-0.093,-0.0917,-0.0921,-0.0935,-0.097,-0.0972,-0.0974,-0.0991,-0.0996,-0.1,0,0,0,0,0,0,-0.074,-0.0763,-0.0771,-0.0784,-0.0809,-0.0831,-0.0845,-0.0858,-0.0882,-0.0887,-0.0895,-0.0899,-0.093,-0.0934,-0.092,-0.0963,-0.0948,-0.0951,-0.0959,-0.0964,-0.0968,-0.0966,-0.0907,0,0,0,0,0,-0.074,-0.0752,-0.0777,-0.079,-0.0802,-0.0826,-0.084,-0.0856,-0.0878,-0.089,-0.0906,-0.0924,-0.0941,-0.0954,-0.0969,-0.0995,-0.0994,-0.1007,-0.1011,-0.1014,-0.1016,-0.103,-0.1035,-0.0983,-0.0983,-0.0983,0,0,-0.0739,-0.0753,-0.0761,-0.0788,-0.0807,-0.0829,-0.0835,-0.0863,-0.0886,-0.089,-0.0926,-0.0938,-0.0951,-0.098,-0.0994,-0.0986,-0.1029,-0.1017,-0.1019,-0.102,-0.1033,-0.1038,-0.1042,-0.0985,-0.0985,-0.0984,0,0,-0.0742,-0.0757,-0.0768,-0.079,-0.0823,-0.084,-0.0852,-0.0884,-0.0903,-0.0939,-0.0946,-0.097,-0.0999,-0.1011,-0.102,-0.1055,-0.1047,-0.1061,-0.108,-0.1094,-0.1098,-0.1101,-0.1107,-0.111,-0.1064,-0.1064,-0.1064,0,-0.0741,-0.0758,-0.0777,-0.0795,-0.0818,-0.0846,-0.087,-0.0892,-0.0933,-0.0954,-0.0954,-0.1004,-0.1012,-0.1045,-0.1057,-0.1062,-0.1067,-0.106,-0.1097,-0.1101,-0.1104,-0.1109,-0.1113,-0.1065,-0.1065,-0.1065,-0.1065,0,-0.0749,-0.077,-0.0781,-0.0812,-0.0839,-0.0866,-0.0901,-0.0933,-0.0958,-0.0979,-0.1023,-0.1039,-0.1067,-0.1074,-0.1076,-0.1108,-0.1104,-0.1098,-0.1082,-0.111,-0.1114,-0.1117,-0.1067,-0.1067,-0.1066,-0.1066,0,0,-0.0729,-0.0777,-0.0782,-0.0807,-0.0854,-0.0879,-0.092,-0.0966,-0.0999,-0.103,-0.1071,-0.1095,-0.1105,-0.1115,-0.1123,-0.1136,-0.1159,-0.113,-0.113,-0.1128,-0.1188,-0.1141,-0.1141,-0.1162,-0.1163,-0.1163,-0.118,0,-0.0733,-0.0767,-0.0794,-0.0841,-0.0864,-0.091,-0.0949,-0.0994,-0.1031,-0.1076,-0.1097,-0.1132,-0.112,-0.1139,-0.115,-0.1162,-0.1171,-0.1155,-0.1167,-0.1167,-0.1117,-0.1144,-0.1166,-0.1183,-0.1184,-0.1185,-0.1185,0,-0.0729,-0.0757,-0.0794,-0.0864,-0.088,-0.0913,-0.0987,-0.1026,-0.1087,-0.1116,-0.1151,-0.1169,-0.12,-0.1183,-0.1207,-0.12,-0.1195,-0.1197,-0.1197,-0.1149,-0.1127,-0.1151,-0.1192,-0.1191,-0.1191,-0.119,-0.119,0,-0.07,-0.076,-0.0793,-0.0814,-0.0888,-0.0923,-0.097,-0.1036,-0.1079,-0.1141,-0.1178,-0.1209,-0.1237,-0.1237,-0.1237,-0.1228,-0.1259,-0.1244,-0.1195,-0.1192,-0.1218,-0.1214,-0.1255,-0.1255,-0.1255,-0.1255,-0.1255,0,-0.0686,-0.0718,-0.0784,-0.0801,-0.0856,-0.0914,-0.0977,-0.1027,-0.1101,-0.1151,-0.1193,-0.1229,-0.1253,-0.1274,-0.1258,-0.1239,-0.1272,-0.1203,-0.1196,-0.1227,-0.1224,-0.122,-0.1216,-0.1255,-0.1255,-0.1255,-0.1255,0,-0.0645,-0.0687,-0.073,-0.0808,-0.0839,-0.0876,-0.098,-0.1027,-0.1098,-0.1167,-0.1189,-0.1257,-0.1283,-0.1297,-0.1306,-0.1265,-0.125,-0.1233,-0.127,-0.1264,-0.1168,-0.1165,-0.1179,-0.1178,-0.1177,-0.1176,-0.1175,0,-0.0628,-0.0641,-0.0719,-0.0752,-0.079,-0.0861,-0.0915,-0.1008,-0.1055,-0.1171,-0.1196,-0.1261,-0.1293,-0.1269,-0.1281,-0.1256,-0.1238,-0.122,-0.1187,-0.117,-0.1162,-0.116,-0.1159,-0.1173,-0.1173,-0.1172,-0.1172,0,-0.059,-0.0614,-0.0645,-0.0707,-0.0766,-0.0841,-0.092,-0.0951,-0.106,-0.1131,-0.1182,-0.1204,-0.124,-0.1238,-0.1233,-0.1208,-0.1226,-0.1207,-0.1208,-0.1177,-0.1162,-0.1155,-0.1155,-0.1168,-0.1168,-0.1169,-0.1169,0,-0.0558,-0.0559,-0.0597,-0.0651,-0.0736,-0.0807,-0.0857,-0.0926,-0.0985,-0.1106,-0.1116,-0.1183,-0.1236,-0.1214,-0.1203,-0.1186,-0.1163,-0.1117,-0.1123,-0.1128,-0.1102,-0.1075,-0.1052,0,0,0,0,0,-0.0518,-0.0506,-0.0548,-0.0612,-0.0708,-0.0757,-0.086,-0.0912,-0.1007,-0.1024,-0.1072,-0.1099,-0.1115,-0.1139,-0.1107,-0.1171,-0.116,-0.1129,-0.1108,-0.1144,-0.1149,-0.1122,0,0,0,0,0,0,-0.0485,-0.0503,-0.051,-0.0578,-0.0627,-0.0726,-0.0792,-0.0862,-0.0873,-0.0963,-0.0972,-0.1035,-0.1053,-0.1115,-0.1083,-0.109,-0.1057,-0.1164,-0.1162,-0.1141,-0.1146,-0.115,-0.1124,0,0,0,0,0]},{"header":{"parameterUnit":"m.s-1","parameterCategory":2,"la1":30.2991,"la2":30.254,"lo1":-89.0895,"lo2":-89.0444,"dy":0.0017,"dx":0.0017,"nx":28,"ny":28,"refTime":"2025-12-15T03:00:00:Z","depth":"4","parameterNumber":3,"parameterNumberName":"V-component_of_CURRENTS"},"data":[0,0,0,0,0,0,0,0,0,0,0,0,0,0,0,0,0,0,0,0,0,0,0,0,0,0,0,0,0,0,0,0,0,0,0,0,0,0,0,0,0,0,0,0,0,0,0,0,0,0,0,0,0,0,0,0,0,0,-0.0153,-0.0153,0,-0.0151,-0.0151,-0.0151,-0.0151,-0.0151,-0.0151,-0.0151,-0.0132,-0.0131,-0.0131,0,0,0,0,0,0,0,0,0,0,0,0,0,-0.0136,-0.0137,-0.0153,-0.0153,-0.0152,-0.0151,-0.0151,-0.0151,-0.0151,-0.0151,-0.0151,-0.0151,-0.0132,-0.0131,-0.0131,0,0,0,0,0,0,0,0,0,0,0,0,0,-0.0141,-0.0137,-0.0153,-0.0152,-0.0152,-0.0151,-0.0151,-0.0151,-0.0151,-0.0151,-0.0151,-0.0151,-0.0132,-0.0131,-0.0131,-0.0127,0,0,-0.0128,-0.0128,0,0,0,0,0,0,0,0,-0.0141,-0.0141,-0.0152,-0.0152,-0.0152,-0.0151,-0.0138,-0.0142,-0.0151,-0.0152,-0.0151,-0.0151,-0.0136,-0.0135,-0.0136,-0.0126,-0.0126,-0.0128,-0.0128,-0.0128,-0.0127,0,0,0,0,0,0,0,-0.014,-0.0141,-0.0153,-0.0152,-0.0152,-0.0145,-0.0145,-0.0139,-0.0145,-0.0152,-0.0152,-0.0151,-0.0136,-0.0137,-0.0135,-0.0125,-0.0128,-0.0128,-0.0127,-0.0127,-0.0112,-0.0112,0,0,0,0,0,0,-0.014,-0.0141,-0.0153,-0.0153,-0.0145,-0.0145,-0.0146,-0.0152,-0.0145,-0.0144,-0.0151,-0.0151,-0.0138,-0.0136,-0.0135,-0.0137,-0.0128,-0.0127,-0.0126,-0.0112,-0.0112,-0.0112,0,0,0,0,0,0,-0.014,-0.0141,-0.0153,-0.0146,-0.0147,-0.0145,-0.0152,-0.0152,-0.0154,-0.0144,-0.0143,-0.0153,-0.0138,-0.0136,-0.013,-0.0136,-0.0127,-0.0126,-0.0112,-0.0112,-0.0112,-0.0137,0,0,0,0,0,0,-0.014,-0.0142,-0.0146,-0.0146,-0.0147,-0.0157,-0.0152,-0.0152,-0.0152,-0.0152,-0.0145,-0.0143,-0.0138,-0.0131,-0.013,-0.0135,-0.0125,-0.0112,-0.0112,-0.0112,-0.0136,-0.0138,-0.014,0,0,0,0,0,-0.0139,-0.0147,-0.0146,-0.0148,-0.0153,-0.0157,-0.0157,-0.0156,-0.0152,-0.0157,-0.0149,-0.0144,-0.0131,-0.0131,-0.0129,-0.0134,-0.0112,-0.0112,-0.0112,-0.0136,-0.0138,-0.014,0,0,0,0,0,0,-0.0142,-0.0148,-0.0147,-0.0157,-0.0158,-0.0157,-0.016,-0.0157,-0.0155,-0.0154,-0.0144,-0.0142,-0.0141,-0.0131,-0.0132,-0.0129,-0.012,-0.012,-0.0139,-0.0141,-0.0142,-0.0138,-0.0125,0,0,0,0,0,-0.0145,-0.0153,-0.0155,-0.0162,-0.0163,-0.0161,-0.0162,-0.0161,-0.0159,-0.0158,-0.0153,-0.0145,-0.0139,-0.0135,-0.013,-0.0127,-0.0096,-0.0128,-0.013,-0.0131,-0.0126,-0.0083,-0.008,-0.0112,-0.0112,-0.0112,0,0,-0.0148,-0.0152,-0.0156,-0.0163,-0.0163,-0.0172,-0.0162,-0.0166,-0.0171,-0.0155,-0.016,-0.0151,-0.014,-0.0139,-0.0137,-0.0132,-0.0105,-0.0131,-0.0133,-0.0126,-0.0082,-0.0079,-0.0076,-0.0113,-0.0113,-0.0113,0,0,-0.0159,-0.0162,-0.0173,-0.0177,-0.018,-0.0179,-0.018,-0.0181,-0.018,-0.0183,-0.0172,-0.0163,-0.0159,-0.0149,-0.0144,-0.0149,-0.0116,-0.015,-0.0153,-0.0112,-0.0109,-0.0106,-0.0057,-0.005,-0.0149,-0.0149,-0.0149,0,-0.0161,-0.0178,-0.0176,-0.0188,-0.0192,-0.0183,-0.0195,-0.0194,-0.0193,-0.0186,-0.0188,-0.0168,-0.0163,-0.0149,-0.0155,-0.0153,-0.0119,-0.0149,-0.0114,-0.011,-0.0106,-0.0057,-0.0048,-0.015,-0.015,-0.015,-0.015,0,-0.0182,-0.0195,-0.0202,-0.0215,-0.0219,-0.0227,-0.0225,-0.0224,-0.0219,-0.0213,-0.02,-0.0188,-0.0172,-0.0173,-0.0169,-0.0142,-0.0123,-0.0122,-0.0108,-0.0104,-0.0053,-0.0043,-0.0152,-0.0152,-0.0151,-0.0151,0,0,-0.0186,-0.0212,-0.0214,-0.0226,-0.0234,-0.0239,-0.0242,-0.0239,-0.0233,-0.0227,-0.0216,-0.0206,-0.0188,-0.018,-0.0167,-0.0136,-0.0086,-0.012,-0.0117,-0.0071,0.0018,-0.001,-0.0001,-0.0077,-0.0075,-0.0074,0.0044,0,-0.0202,-0.0233,-0.0238,-0.0262,-0.0276,-0.0269,-0.0273,-0.0266,-0.0254,-0.0241,-0.0215,-0.0203,-0.0194,-0.0185,-0.0151,-0.0105,-0.0062,-0.0117,0.0006,0.001,-0.0014,0.0008,-0.007,0.0052,0.0054,0.0056,0.0057,0,-0.0219,-0.0238,-0.0267,-0.0286,-0.029,-0.03,-0.0293,-0.0295,-0.0269,-0.0258,-0.0229,-0.0208,-0.0164,-0.0161,-0.0059,-0.0093,-0.0036,0.0003,0.0009,-0.0,0.0001,0.0046,0.0075,0.0074,0.0072,0.0071,0.007,0,-0.0223,-0.0255,-0.0279,-0.0288,-0.0308,-0.0312,-0.0315,-0.0298,-0.0297,-0.0263,-0.025,-0.0195,-0.0165,-0.009,-0.0015,-0.0028,0.0102,0.0095,0.0132,0.0132,0.0132,0.0127,0.018,0.018,0.018,0.0179,0.0179,0,-0.0235,-0.0254,-0.0285,-0.03,-0.0325,-0.0326,-0.0335,-0.0327,-0.031,-0.0304,-0.0258,-0.0234,-0.0146,-0.0069,0.0001,0.0097,0.0123,0.0143,0.0161,0.0119,0.0111,0.014,0.0133,0.0184,0.0183,0.0182,0.0181,0,-0.0236,-0.0257,-0.0291,-0.032,-0.0332,-0.0348,-0.0365,-0.0369,-0.0341,-0.0328,-0.0318,-0.0249,-0.0154,-0.0059,0.0068,0.0115,0.0208,0.0239,0.02,0.0212,0.0211,0.0202,0.0298,0.0298,0.0298,0.0298,0.0298,0,-0.0239,-0.0257,-0.031,-0.0341,-0.0358,-0.0383,-0.0402,-0.0391,-0.039,-0.0338,-0.0332,-0.0242,-0.019,-0.0016,0.0075,0.0221,0.0229,0.0291,0.0238,0.0216,0.0224,0.0215,0.0206,0.0298,0.0298,0.0298,0.0298,0,-0.0248,-0.0268,-0.03,-0.0368,-0.0404,-0.0437,-0.0455,-0.0454,-0.043,-0.0403,-0.0336,-0.0251,-0.0145,-0.0028,0.0088,0.0187,0.0254,0.0292,0.0292,0.0243,0.0217,0.0223,0.0215,0.0298,0.0298,0.0298,0.0298,0,-0.0253,-0.0282,-0.0335,-0.0393,-0.0448,-0.0483,-0.0485,-0.0474,-0.0463,-0.0396,-0.0373,-0.0257,-0.0183,-0.0044,0.0061,0.0154,0.0166,0.0193,0.0198,0.0199,0.0118,0.0067,0.0129,0,0,0,0,0,-0.0253,-0.0295,-0.0359,-0.043,-0.0488,-0.052,-0.0523,-0.0512,-0.0477,-0.0437,-0.0403,-0.0306,-0.0153,-0.0081,0.0006,0.0045,0.0173,0.015,0.0203,0.0299,0.0299,0.0215,0,0,0,0,0,0,-0.0258,-0.0313,-0.036,-0.0454,-0.0512,-0.0568,-0.0573,-0.0547,-0.051,-0.0459,-0.0375,-0.0306,-0.0157,-0.0217,-0.0005,0.0026,0.0069,0.023,0.0231,0.0299,0.0299,0.0299,0.0212,0,0,0,0,0]}]]